Weather reports worldwide

Advertisment
Tyler, tx, United States of America (2074041): temperature & dewpoint: 11.06.2019 21:00:00 - 17.06.2019 21:00:00 (CDT)Tyler, tx, United States of America (2074041): wind speed & gusts: 11.06.2019 21:00:00 - 17.06.2019 21:00:00 (CDT)Tyler, tx, United States of America (2074041): wind direction: 11.06.2019 21:00:00 - 17.06.2019 21:00:00 (CDT)Tyler, tx, United States of America (2074041): reduced air pressure: 11.06.2019 21:00:00 - 17.06.2019 21:00:00 (CDT)Tyler, tx, United States of America (2074041): visibility: 11.06.2019 21:00:00 - 17.06.2019 21:00:00 (CDT)Tyler, tx, United States of America (2074041): precipitation: 11.06.2019 21:00:00 - 17.06.2019 21:00:00 (CDT)
Date & Time tt [°C] td [°C] ff [km/h] ff [kn] fx [km/h] fx [kn] dd ppp [hPa] vv [km] rr [mm]
17.06.2019 21:00:00 25,0 21,7 0 0 - - N 1011,1 16 -
17.06.2019 20:00:00 27,8 19,4 8 4 - - NNE 1010,7 16 -
17.06.2019 19:00:00 28,3 20,0 11 6 - - N 1010,8 16 -
17.06.2019 18:00:00 28,9 18,9 15 8 - - NW 1010,9 16 -
17.06.2019 17:00:00 28,9 18,9 8 4 - - NNW 1011,3 16 -
17.06.2019 16:00:00 28,3 19,4 9 5 - - - 1012,1 16 -
17.06.2019 15:00:00 28,3 19,4 9 5 - - SSW 1012,4 16 -
17.06.2019 14:00:00 27,2 19,4 9 5 - - SSW 1012,7 16 -
17.06.2019 13:00:00 26,1 18,9 13 7 - - WSW 1013,1 16 -
17.06.2019 12:00:00 25,6 19,4 16 9 - - WSW 1013,3 16 -
17.06.2019 11:00:00 24,4 19,4 11 6 - - W 1013,4 16 -
17.06.2019 10:00:00 22,8 19,4 11 6 - - SSW 1013,4 16 -
17.06.2019 09:00:00 22,2 19,4 8 4 - - S 1013,1 16 -
17.06.2019 08:00:00 20,0 18,9 0 0 - - N 1012,9 6 -
17.06.2019 07:00:00 19,4 18,9 8 4 - - ENE 1011,7 16 -
17.06.2019 06:00:00 19,4 18,9 5 3 - - E 1011,5 16 0,0
17.06.2019 05:00:00 19,4 18,9 0 0 - - N 1011,4 16 0,0
17.06.2019 04:00:00 19,4 19,4 13 7 - - N 1010,2 16 0,0
17.06.2019 03:00:00 20,0 18,3 13 7 - - S 1010,5 16 -
17.06.2019 02:00:00 20,0 18,9 21 11 - - SSW 1010,7 16 -
17.06.2019 01:00:00 20,0 18,3 16 9 - - S 1009,7 16 0,0
17.06.2019 00:00:00 20,0 17,8 11 6 - - SE 1009,6 16 0,3
16.06.2019 23:00:00 20,0 18,3 9 5 - - E 1011,4 16 0,0
16.06.2019 22:00:00 20,0 19,4 11 6 - - SSE 1011,2 16 0,5
16.06.2019 21:00:00 20,6 20,0 18 10 - - ESE 1010,9 16 1,8
16.06.2019 20:00:00 20,6 20,0 24 13 - - E 1011,9 6 1,3
16.06.2019 19:00:00 20,0 19,4 21 11 - - SSE 1011,3 3,2 12,2
16.06.2019 18:00:00 21,1 20,0 11 6 - - W 1011,0 1,6 0,0
16.06.2019 17:00:00 21,1 19,4 26 14 - - SE 1010,8 16 -
16.06.2019 16:00:00 21,1 19,4 24 13 - - SE 1011,9 16 -
16.06.2019 15:00:00 21,1 19,4 22 12 - - SE 1011,5 16 -
16.06.2019 14:00:00 20,6 19,4 18 10 - - SE 1011,6 16 -
16.06.2019 13:00:00 20,0 19,4 15 8 - - ESE 1012,6 16 0,3
16.06.2019 12:00:00 20,0 19,4 15 8 - - SSE 1013,4 16 0,0
16.06.2019 11:00:00 20,0 18,9 5 3 - - ESE 1013,9 16 0,0
16.06.2019 10:00:00 20,0 18,9 15 8 - - E 1014,5 16 0,0
16.06.2019 09:00:00 19,4 18,9 11 6 - - - 1014,1 16 0,5
16.06.2019 08:00:00 19,4 18,9 9 5 - - NE 1014,6 8 27,9
16.06.2019 07:00:00 19,4 18,9 18 10 - - NNE 1013,4 4,0 9,1
16.06.2019 06:00:00 20,0 18,3 26 14 48 26 N 1012,4 10 2,3
16.06.2019 05:00:00 25,0 22,8 11 6 - - S 1011,1 16 -
16.06.2019 04:00:00 25,6 22,8 13 7 - - S 1011,4 16 -
16.06.2019 03:00:00 25,6 22,8 16 9 - - S 1011,9 16 -
16.06.2019 02:00:00 25,6 22,8 18 10 - - S 1011,0 16 -
16.06.2019 01:00:00 26,7 23,3 21 11 - - S 1010,9 16 -
16.06.2019 00:00:00 27,2 23,3 24 13 - - S 1009,9 16 -
15.06.2019 23:00:00 27,2 23,3 26 14 - - S 1010,3 16 -
15.06.2019 22:00:00 28,3 22,8 21 11 - - SSE 1009,9 16 -
15.06.2019 21:00:00 28,9 22,8 18 10 - - SSE 1009,4 16 -
15.06.2019 20:00:00 31,1 21,7 21 11 - - SSE 1009,2 16 -
15.06.2019 19:00:00 33,3 19,4 18 10 - - S 1008,9 16 -
15.06.2019 18:00:00 33,9 18,9 24 13 - - S 1009,1 16 -
15.06.2019 17:00:00 33,9 19,4 26 14 - - S 1009,6 16 -
15.06.2019 16:00:00 33,9 20,0 28 15 - - SSW 1010,5 16 -
15.06.2019 15:00:00 32,8 20,0 26 14 - - S 1010,9 16 -
15.06.2019 14:00:00 32,8 20,6 28 15 - - SSW 1011,6 16 -
15.06.2019 13:00:00 31,7 21,1 24 13 - - SSW 1012,4 16 -
15.06.2019 12:00:00 30,0 21,7 31 17 54 29 SSW 1012,5 16 -
15.06.2019 11:00:00 29,4 21,7 26 14 - - SSW 1012,8 16 -
15.06.2019 10:00:00 27,2 22,8 26 14 - - S 1013,4 16 -
15.06.2019 09:00:00 26,1 22,8 24 13 - - S 1013,3 16 -
15.06.2019 08:00:00 24,4 21,7 18 10 - - S 1013,1 16 -
15.06.2019 07:00:00 22,8 21,1 18 10 - - S 1012,7 16 -
15.06.2019 06:00:00 22,8 21,1 11 6 - - S 1013,1 16 -
15.06.2019 05:00:00 22,8 20,6 16 9 - - S 1012,6 16 -
15.06.2019 04:00:00 22,8 20,6 18 10 - - S 1012,3 16 -
15.06.2019 03:00:00 23,3 20,6 22 12 - - S 1012,0 16 -
15.06.2019 02:00:00 23,9 20,0 21 11 - - S 1012,5 16 -
15.06.2019 01:00:00 25,0 19,4 18 10 - - S 1012,5 16 -
15.06.2019 00:00:00 25,6 18,9 21 11 - - S 1012,6 16 -
14.06.2019 23:00:00 26,1 18,9 18 10 - - S 1012,3 16 -
14.06.2019 22:00:00 26,7 19,4 21 11 - - S 1011,9 16 -
14.06.2019 21:00:00 27,8 19,4 16 9 - - S 1011,5 16 -
14.06.2019 20:00:00 29,4 19,4 18 10 - - S 1011,7 16 -
14.06.2019 19:00:00 30,6 20,0 22 12 - - S 1011,8 16 -
14.06.2019 18:00:00 31,7 20,0 22 12 - - S 1012,4 16 -
14.06.2019 17:00:00 31,7 19,4 31 17 - - S 1012,9 16 -
14.06.2019 16:00:00 31,1 19,4 22 12 - - S 1013,4 16 -
14.06.2019 15:00:00 30,6 19,4 26 14 - - S 1013,8 16 -
14.06.2019 14:00:00 30,0 19,4 16 9 - - S 1014,7 16 -
14.06.2019 13:00:00 30,0 19,4 28 15 - - S 1015,5 16 -
14.06.2019 12:00:00 30,0 18,3 35 19 - - S 1016,1 16 -
14.06.2019 11:00:00 28,9 18,9 26 14 - - S 1016,7 16 -
14.06.2019 10:00:00 26,1 16,7 15 8 - - S 1017,2 16 -
14.06.2019 09:00:00 23,9 15,0 21 11 - - SSE 1017,4 16 -
14.06.2019 08:00:00 22,8 14,4 18 10 - - SSE 1017,4 16 -
14.06.2019 07:00:00 20,6 14,4 13 7 - - SSE 1017,1 16 -
14.06.2019 06:00:00 20,6 13,9 15 8 - - SSE 1016,9 16 -
14.06.2019 05:00:00 20,0 14,4 11 6 - - SE 1016,8 16 -
14.06.2019 04:00:00 20,0 15,0 11 6 - - ESE 1016,9 16 -
14.06.2019 03:00:00 20,0 14,4 9 5 - - SE 1017,4 16 -
14.06.2019 02:00:00 21,7 13,9 11 6 - - ESE 1017,4 16 -
14.06.2019 01:00:00 22,2 13,9 11 6 - - ESE 1017,1 16 -
14.06.2019 00:00:00 23,3 13,3 11 6 - - E 1017,2 16 -
13.06.2019 23:00:00 23,9 12,8 11 6 - - E 1017,1 16 -
13.06.2019 22:00:00 25,0 12,8 9 5 - - E 1016,7 16 -
13.06.2019 21:00:00 25,6 12,2 9 5 - - E 1016,7 16 -
13.06.2019 20:00:00 27,8 11,1 8 4 - - ENE 1016,9 16 -
13.06.2019 19:00:00 29,4 11,1 9 5 - - ENE 1016,9 16 -
13.06.2019 18:00:00 30,0 8,9 15 8 - - NNE 1017,1 16 -
13.06.2019 17:00:00 30,0 8,3 11 6 - - NE 1017,6 16 -
13.06.2019 16:00:00 30,0 8,9 5 3 - - NE 1017,9 16 -
13.06.2019 15:00:00 29,4 10,6 9 5 - - - 1018,3 16 -
13.06.2019 14:00:00 29,4 9,4 13 7 - - NE 1018,8 16 -
13.06.2019 13:00:00 28,9 10,6 11 6 - - - 1019,3 16 -
13.06.2019 12:00:00 28,3 11,7 13 7 - - NNE 1019,5 16 -
13.06.2019 11:00:00 26,7 13,3 5 3 - - - 1019,3 16 -
13.06.2019 10:00:00 25,6 15,0 13 7 - - ENE 1019,3 16 -
13.06.2019 09:00:00 23,3 16,1 8 4 - - NNE 1019,5 16 -
13.06.2019 08:00:00 20,6 16,7 5 3 - - N 1019,0 16 -
13.06.2019 07:00:00 17,2 15,6 0 0 - - N 1018,3 16 -
13.06.2019 06:00:00 16,7 15,0 0 0 - - N 1017,5 16 -
13.06.2019 05:00:00 17,8 15,6 0 0 - - N 1017,1 16 -
13.06.2019 04:00:00 18,9 16,1 5 3 - - N 1016,8 16 -
13.06.2019 03:00:00 20,0 15,6 0 0 - - N 1016,9 16 -
13.06.2019 02:00:00 21,1 16,1 5 3 - - N 1016,8 16 -
13.06.2019 01:00:00 22,2 15,6 9 5 - - N 1016,6 16 -
13.06.2019 00:00:00 22,8 16,1 9 5 - - N 1016,6 16 -
12.06.2019 23:00:00 23,9 17,8 9 5 - - N 1016,1 16 -
12.06.2019 22:00:00 24,4 18,9 9 5 - - NW 1015,3 16 -
12.06.2019 21:00:00 25,6 17,2 5 3 - - WNW 1014,7 16 -
12.06.2019 20:00:00 27,2 16,7 8 4 - - WNW 1014,3 16 -
12.06.2019 19:00:00 28,9 15,6 11 6 - - NW 1013,8 16 -
12.06.2019 18:00:00 30,0 15,6 9 5 - - NW 1013,7 16 -
12.06.2019 17:00:00 30,0 15,0 16 9 - - NNW 1014,0 16 -
12.06.2019 16:00:00 30,6 15,0 18 10 - - NW 1014,3 16 -
12.06.2019 15:00:00 30,0 15,6 16 9 - - NNW 1014,7 16 -
12.06.2019 14:00:00 28,9 13,9 15 8 - - NW 1015,1 16 -
12.06.2019 13:00:00 28,3 13,9 18 10 - - NW 1015,4 16 -
12.06.2019 12:00:00 26,7 13,3 13 7 - - W 1015,9 16 -
12.06.2019 11:00:00 26,1 14,4 18 10 - - WSW 1015,4 16 -
12.06.2019 10:00:00 24,4 13,3 0 0 - - N 1016,4 16 -
12.06.2019 09:00:00 21,7 14,4 5 3 - - NNW 1017,0 16 -
12.06.2019 08:00:00 18,9 15,0 8 4 - - NNW 1017,4 16 -
12.06.2019 07:00:00 17,2 14,4 0 0 - - N 1015,1 16 -
12.06.2019 06:00:00 15,6 13,9 5 3 - - SSE 1013,9 16 -
12.06.2019 05:00:00 15,6 14,4 5 3 - - NNW 1015,1 16 -
12.06.2019 04:00:00 15,6 13,9 11 6 - - SE 1015,0 16 -
12.06.2019 03:00:00 16,7 14,4 0 0 - - N 1015,7 16 -
12.06.2019 02:00:00 17,8 14,4 0 0 - - N 1015,6 16 -
12.06.2019 01:00:00 18,9 14,4 5 3 - - ESE 1015,8 16 -
12.06.2019 00:00:00 18,9 14,4 0 0 - - N 1016,1 16 -
11.06.2019 23:00:00 20,0 14,4 0 0 - - N 1016,4 16 -
11.06.2019 22:00:00 21,7 12,8 5 3 - - ENE 1015,6 16 -
11.06.2019 21:00:00 23,3 11,1 8 4 - - E 1015,6 16 -

tt = temperature
td = dewpoint
ff = wind speed
fx = gusts
dd = wind direction
ppp = reduced air pressure
vv = visibility
rr = precipitation

Next stations